Selinsgrove, PA

6:37 PM EDT on September 26, 2016 (GMT -0400)
Penn Valley

Weather History for KSEG - September, 2012

Change the Weather History Date:

Saturday, September 15, 2012

  Actual Average (KIPT) Record (KIPT)
Temperature  
Mean Temperature 60 °F 64 °F  
Max Temperature 73 °F 74 °F 92 °F (1927)
Min Temperature 48 °F 54 °F 35 °F (1923)
Degree Days  
Heating Degree Days 4 3  
Month to date heating degree days 29  
Since 1 July heating degree days 43  
Cooling Degree Days 0 2  
Month to date cooling degree days 46  
Year to date cooling degree days 680  
Growing Degree Days 10 (Base 50)    
Moisture  
Dew Point 51 °F    
Average Humidity 77    
Maximum Humidity 97    
Minimum Humidity 42    
Precipitation  
Precipitation 0.07 in 0.14 in 1.80 in (1933)
Month to date precipitation 2.07  
Year to date precipitation 29.10  
Sea Level Pressure  
Sea Level Pressure 30.19 in    
Wind  
Wind Speed 3 mph (NNW)    
Max Wind Speed 8 mph    
Max Gust Speed 16 mph    
Visibility 9 miles    
Events      
T = Trace of Precipitation, MM = Missing Value Source: NWS Daily Summary

Daily Weather History Graph

Daily Weather History Graph

Search for Another Location

Airport or City:

Trip Planner

Search our weather history database for the weather conditions in past years. The results will help you decide how hot, cold, wet, or windy it might be!

Date:

Astronomy

Sep. 15, 2012 Rise Set
Actual Time 6:48 AM EDT 7:15 PM EDT
Civil Twilight 6:21 AM EDT 7:43 PM EDT
Nautical Twilight 5:48 AM EDT 8:15 PM EDT
Astronomical Twilight 5:15 AM EDT 8:48 PM EDT
Moon 6:17 AM EDT (9/15) 6:44 PM EDT (9/15)
Length of Visible Light 13h 22m
Length of Day
12h 27m
Waning Crescent, 0% of the Moon is Illuminated
Sep 15
Waning Crescent
Sep 15
New
Sep 22
First Quarter
Sep 29
Full
Oct 8
Last Quarter

Hourly Weather History & Observations

Time (EDT) Temp. Dew Point Humidity Pressure Visibility Wind Dir Wind Speed Gust Speed Precip Events Conditions
12:53 AM 60.1 °F 55.9 °F 86% 30.20 in 10.0 mi NNW 6.9 mph - 0.06 in   Mostly Cloudy
1:53 AM 57.9 °F 55.0 °F 90% 30.21 in 10.0 mi NW 3.5 mph - 0.00 in   Overcast
2:53 AM 55.0 °F 53.1 °F 93% 30.20 in 10.0 mi WNW 3.5 mph - N/A   Clear
3:53 AM 52.0 °F 51.1 °F 97% 30.20 in 9.0 mi Calm Calm - N/A   Clear
4:53 AM 51.1 °F 48.9 °F 92% 30.20 in 10.0 mi NNW 4.6 mph - N/A   Clear
5:53 AM 48.9 °F 48.0 °F 97% 30.21 in 8.0 mi Calm Calm - N/A   Clear
6:49 AM 48.2 °F 46.4 °F 93% 30.23 in 2.0 mi Calm Calm - N/A   Clear
6:53 AM 48.0 °F 46.0 °F 93% 30.23 in 3.0 mi Calm Calm - N/A   Clear
7:53 AM 53.1 °F 51.1 °F 93% 30.25 in 9.0 mi Calm Calm - 0.01 in   Clear
8:53 AM 60.1 °F 55.0 °F 83% 30.25 in 10.0 mi Calm Calm - N/A   Clear
9:53 AM 64.9 °F 52.0 °F 63% 30.25 in 10.0 mi NNW 4.6 mph - N/A   Clear
10:53 AM 66.9 °F 51.1 °F 57% 30.25 in 10.0 mi Variable 4.6 mph 16.1 mph N/A   Clear
11:53 AM 69.1 °F 52.0 °F 54% 30.24 in 10.0 mi North 8.1 mph - N/A   Scattered Clouds
12:53 PM 69.1 °F 51.1 °F 53% 30.22 in 10.0 mi NNW 8.1 mph - N/A   Mostly Cloudy
1:53 PM 71.1 °F 52.0 °F 51% 30.20 in 10.0 mi Calm Calm - N/A   Mostly Cloudy
2:53 PM 71.1 °F 51.1 °F 49% 30.17 in 10.0 mi Calm Calm - N/A   Scattered Clouds
3:53 PM 73.0 °F 48.9 °F 42% 30.15 in 10.0 mi Variable 3.5 mph - N/A   Clear
4:53 PM 70.0 °F 50.0 °F 49% 30.15 in 10.0 mi Calm Calm - N/A   Scattered Clouds
5:53 PM 70.0 °F 48.0 °F 46% 30.14 in 10.0 mi North 6.9 mph - N/A   Clear
6:53 PM 61.0 °F 55.0 °F 81% 30.14 in 10.0 mi Calm Calm - N/A   Clear
7:53 PM 55.9 °F 54.0 °F 93% 30.14 in 10.0 mi Calm Calm - N/A   Clear
8:53 PM 54.0 °F 52.0 °F 93% 30.14 in 10.0 mi Calm Calm - N/A   Clear
9:53 PM 52.0 °F 50.0 °F 93% 30.15 in 10.0 mi Calm Calm - N/A   Partly Cloudy
10:53 PM 51.1 °F 48.9 °F 92% 30.15 in 9.0 mi Calm Calm - N/A   Partly Cloudy
11:53 PM 50.0 °F 48.0 °F 93% 30.16 in 8.0 mi Calm Calm - N/A   Clear